Lake Wenatchee to Mission Ridge
Tumwater Mt. & Leavenworth
Latest observation 08/31 18:00 PDT
| Time (PDT) | Temp °F 4180' | Temp °F 1190' | RH % 4180' | RH % 1190' | Min mph 4180' | Spd mph 4180' | Gust mph 4180' | Dir ° 4180' | Pcp1 in 1190' | PcpSum in 1190' | 24Sno in 1190' | SnoHt in 1190' | SnoHt in 4180' |
|---|---|---|---|---|---|---|---|---|---|---|---|---|---|
| 08/31 18:00 | 68 | 79 | 34 | 29 | 0 | 3 | 10 | 260 | 0.00 | 0.00 | -103.4 | -0.4 | 1.9 |
| 08/31 17:00 | 69 | 83 | 34 | 22 | 0 | 2 | 9 | 209 | 0.00 | 0.00 | -91.4 | -0.4 | 2.3 |
| 08/31 16:00 | 69 | 82 | 35 | 24 | 0 | 2 | 8 | 222 | 0.00 | 0.00 | -74.7 | -0.8 | 2.4 |
| 08/31 15:00 | 68 | 80 | 36 | 24 | 0 | 2 | 7 | 180 | 0.00 | 0.00 | -76.8 | -1.0 | 1.8 |
| 08/31 14:00 | 66 | 79 | 38 | 25 | 0 | 3 | 8 | 156 | 0.00 | 0.00 | -82.8 | -0.8 | 2.0 |
| 08/31 13:00 | 64 | 77 | 40 | 27 | 0 | 3 | 15 | 158 | 0.00 | 0.00 | -92.9 | -0.8 | 2.3 |
| 08/31 12:00 | 60 | 74 | 46 | 35 | 0 | 3 | 13 | 157 | 0.00 | 0.00 | -104.1 | -0.8 | 1.9 |
| 08/31 11:00 | 58 | 69 | 51 | 42 | 0 | 2 | 9 | 171 | 0.00 | 0.00 | -114.7 | -1.0 | 2.6 |
| 08/31 10:00 | 58 | 63 | 52 | 53 | 0 | 2 | 10 | 179 | 0.00 | 0.00 | -126.4 | -1.1 | 1.8 |
| 08/31 09:00 | 57 | 58 | 55 | 61 | 0 | 1 | 10 | 192 | 0.00 | 0.00 | -131.1 | -1.0 | 3.1 |
| 08/31 08:00 | 56 | 54 | 58 | 70 | 0 | 1 | 3 | 171 | 0.00 | 0.00 | -132.8 | -1.0 | 3.6 |
| 08/31 07:00 | 53 | 50 | 63 | 80 | 0 | 1 | 3 | 227 | 0.00 | 0.00 | -134.6 | -0.4 | 3.7 |
| 08/31 06:00 | 51 | 50 | 66 | 81 | 0 | 0 | 2 | 325 | 0.00 | 0.00 | -133.9 | -0.2 | 3.3 |
| 08/31 05:00 | 52 | 50 | 63 | 80 | 0 | 1 | 3 | 8 | 0.00 | 0.00 | -132.9 | -0.2 | 3.1 |
| 08/31 04:00 | 52 | 52 | 65 | 76 | 0 | 2 | 3 | 352 | 0.00 | 0.00 | -132.9 | -0.2 | 2.9 |
| 08/31 03:00 | 52 | 52 | 64 | 74 | 0 | 2 | 4 | 331 | 0.00 | 0.00 | -132.2 | -0.2 | 3.1 |
| 08/31 02:00 | 50 | 53 | 69 | 73 | 0 | 0 | 2 | 341 | 0.00 | 0.00 | -131.1 | -0.2 | 2.2 |
| 08/31 01:00 | 50 | 55 | 68 | 68 | 0 | 1 | 4 | 307 | 0.00 | 0.00 | -131.6 | -0.3 | 1.6 |
| 08/31 00:00 | 50 | 56 | 69 | 66 | 0 | 1 | 2 | 268 | 0.00 | 0.00 | -131.7 | -0.3 | 1.4 |
| 08/30 23:00 | 52 | 59 | 65 | 61 | 0 | 1 | 4 | 302 | 0.00 | 0.00 | -129.6 | -0.2 | 3.8 |
| 08/30 22:00 | 52 | 61 | 65 | 57 | 0 | 3 | 6 | 334 | 0.00 | 0.00 | -128.3 | -0.3 | 1.8 |
| 08/30 21:00 | 52 | 64 | 65 | 53 | 0 | 2 | 7 | 43 | 0.00 | 0.00 | -126.7 | -0.3 | 1.0 |
| 08/30 20:00 | 53 | 68 | 62 | 43 | 0 | 3 | 9 | 37 | 0.00 | 0.00 | -122.5 | -0.3 | 2.4 |
| 08/30 19:00 | 57 | 71 | 55 | 39 | 0 | 4 | 8 | 57 | 0.00 | 0.00 | -118.8 | -0.3 | 2.7 |
| 08/30 18:00 | 61 | 74 | 47 | 35 | 0 | 3 | 9 | 338 | 0.00 | 0.00 | -109.4 | -0.4 | 1.9 |
| 08/30 17:00 | 64 | 77 | 42 | 30 | 0 | 5 | 14 | 275 | 0.00 | 0.00 | -90.5 | -0.1 | 1.4 |
| 08/30 16:00 | 62 | 77 | 43 | 28 | 0 | 5 | 11 | 274 | 0.00 | 0.00 | -83.7 | -1.0 | 1.9 |
| 08/30 15:00 | 63 | 76 | 41 | 28 | 0 | 4 | 12 | 279 | 0.00 | 0.00 | -78.6 | -0.7 | 2.0 |
| 08/30 14:00 | 61 | 75 | 41 | 28 | 0 | 5 | 12 | 280 | 0.00 | 0.00 | -86.9 | -0.8 | 2.4 |
| 08/30 13:00 | 57 | 75 | 47 | 28 | 0 | 5 | 11 | 269 | 0.00 | 0.00 | -102.2 | -1.0 | 2.8 |
| 08/30 12:00 | 55 | 71 | 49 | 32 | 0 | 4 | 10 | 287 | 0.00 | 0.00 | -112.7 | -1.0 | 2.4 |
| 08/30 11:00 | 54 | 69 | 50 | 35 | 0 | 3 | 8 | 16 | 0.00 | 0.00 | -121.7 | -1.0 | 3.3 |
| 08/30 10:00 | 51 | 63 | 55 | 46 | 0 | 2 | 9 | 4 | 0.00 | 0.00 | -130.6 | -0.9 | 2.6 |
| 08/30 09:00 | 49 | 55 | 59 | 63 | 0 | 6 | 12 | 282 | 0.00 | 0.00 | -133.1 | -1.2 | 3.0 |
| 08/30 08:00 | 47 | 51 | 64 | 69 | 2 | 7 | 12 | 278 | 0.00 | 0.00 | -134.7 | -1.0 | 3.3 |
| 08/30 07:00 | 45 | 47 | 68 | 77 | 3 | 8 | 15 | 274 | 0.00 | 0.00 | -133.3 | -0.5 | 2.5 |
| 08/30 06:00 | 46 | 47 | 64 | 77 | 2 | 7 | 14 | 280 | 0.00 | 0.00 | -134.1 | -0.3 | 2.3 |
| 08/30 05:00 | 46 | 48 | 65 | 75 | 2 | 9 | 18 | 281 | 0.00 | 0.00 | -134.4 | -0.3 | 4.0 |
| 08/30 04:00 | 46 | 48 | 69 | 75 | 0 | 7 | 16 | 280 | 0.00 | 0.00 | -135.7 | -0.1 | 3.0 |
| 08/30 03:00 | 46 | 49 | 66 | 71 | 3 | 9 | 19 | 278 | 0.00 | 0.00 | -134.5 | -0.2 | 3.5 |
| 08/30 02:00 | 46 | 50 | 66 | 69 | 2 | 11 | 25 | 279 | 0.00 | 0.00 | -133.4 | -0.2 | 3.0 |
| 08/30 01:00 | 47 | 52 | 63 | 65 | 2 | 12 | 27 | 275 | 0.00 | 0.00 | -133.0 | -0.2 | 2.9 |
| 08/30 00:00 | 47 | 54 | 61 | 61 | 0 | 11 | 23 | 289 | 0.00 | 0.00 | -132.8 | -0.2 | 3.5 |
| 08/29 23:00 | 47 | 56 | 62 | 54 | 0 | 8 | 16 | 277 | 0.00 | 0.00 | -132.3 | -0.2 | 3.4 |
| 08/29 22:00 | 47 | 59 | 62 | 47 | 0 | 5 | 15 | 303 | 0.00 | 0.00 | -130.8 | -0.1 | 3.6 |
| 08/29 21:00 | 47 | 61 | 60 | 41 | 0 | 7 | 21 | 283 | 0.00 | 0.00 | -129.9 | -0.1 | 3.4 |
| 08/29 20:00 | 49 | 63 | 52 | 38 | 3 | 12 | 20 | 271 | 0.00 | 0.00 | -128.1 | -0.2 | 4.1 |
| 08/29 19:00 | 49 | 65 | 53 | 33 | 0 | 11 | 26 | 278 | 0.00 | 0.00 | -127.6 | -0.2 | 3.3 |
| 08/29 18:00 | 52 | 66 | 45 | 31 | 1 | 13 | 29 | 288 | 0.00 | 0.00 | -125.4 | -0.3 | 4.5 |
| 08/29 17:00 | 51 | 67 | 49 | 31 | 1 | 13 | 28 | 273 | 0.00 | 0.00 | -119.1 | -0.5 | 3.3 |
| 08/29 16:00 | 55 | 69 | 44 | 30 | 0 | 10 | 23 | 270 | 0.00 | 0.00 | -113.8 | -0.7 | 2.9 |
| 08/29 15:00 | 53 | 69 | 50 | 31 | 0 | 6 | 20 | 235 | 0.00 | 0.00 | -111.2 | -0.6 | 2.6 |
| 08/29 14:00 | 53 | 69 | 49 | 31 | 1 | 17 | 29 | 266 | 0.00 | 0.00 | -102.6 | -0.5 | 2.6 |
| 08/29 13:00 | 51 | 72 | 54 | 28 | 1 | 20 | 31 | 263 | 0.00 | 0.00 | -112.5 | -0.7 | 3.4 |
| 08/29 12:00 | 50 | 68 | 56 | 31 | 3 | 16 | 26 | 260 | 0.00 | 0.00 | -116.5 | -0.5 | 2.5 |
| 08/29 11:00 | 49 | 69 | 57 | 31 | 7 | 18 | 33 | 261 | 0.00 | 0.00 | -116.6 | -0.7 | 2.1 |
| 08/29 10:00 | 49 | 69 | 58 | 33 | 5 | 17 | 33 | 271 | 0.00 | 0.00 | -126.7 | -0.9 | 2.7 |
| 08/29 09:00 | 48 | 63 | 63 | 50 | 2 | 13 | 23 | 269 | 0.00 | 0.00 | -129.5 | -0.6 | 2.5 |
| 08/29 08:00 | 47 | 59 | 66 | 61 | 3 | 11 | 18 | 271 | 0.00 | 0.00 | -132.4 | -1.2 | 2.8 |
| 08/29 07:00 | 47 | 55 | 62 | 67 | 0 | 11 | 19 | 277 | 0.00 | 0.00 | -131.7 | -0.6 | 3.0 |
| 08/29 06:00 | 48 | 55 | 62 | 70 | 0 | 11 | 24 | 271 | 0.00 | 0.00 | -131.2 | -0.3 | 3.4 |
| 08/29 05:00 | 49 | 56 | 63 | 66 | 4 | 12 | 21 | 268 | 0.00 | 0.00 | -131.3 | -0.3 | 2.7 |
| 08/29 04:00 | 50 | 56 | 64 | 66 | 3 | 11 | 19 | 278 | 0.00 | 0.00 | -130.7 | -0.3 | 2.5 |
| 08/29 03:00 | 50 | 56 | 66 | 64 | 3 | 11 | 19 | 265 | 0.00 | 0.00 | -131.9 | -0.3 | 2.7 |
| 08/29 02:00 | 51 | 57 | 59 | 62 | 1 | 9 | 18 | 264 | 0.00 | 0.00 | -132.4 | -0.2 | 3.3 |
| 08/29 01:00 | 51 | 58 | 60 | 59 | 3 | 11 | 20 | 262 | 0.00 | 0.00 | -131.3 | -0.3 | 2.8 |
| 08/29 00:00 | 52 | 59 | 56 | 58 | 4 | 12 | 20 | 263 | 0.00 | 0.00 | -131.2 | -0.2 | 2.9 |
| 08/28 23:00 | 53 | 60 | 55 | 57 | 7 | 14 | 21 | 269 | 0.00 | 0.00 | -130.7 | -0.3 | 2.6 |
| 08/28 22:00 | 54 | 64 | 54 | 51 | 4 | 12 | 19 | 265 | 0.00 | 0.00 | -128.3 | -0.4 | 2.4 |
| 08/28 21:00 | 55 | 68 | 56 | 45 | 2 | 10 | 20 | 260 | 0.00 | 0.00 | -123.6 | -0.3 | 1.9 |
| 08/28 20:00 | 57 | 72 | 50 | 37 | 2 | 7 | 17 | 284 | 0.00 | 0.00 | -120.0 | -0.3 | 1.5 |
| 08/28 19:00 | 61 | 75 | 41 | 32 | 0 | 9 | 18 | 270 | 0.00 | 0.00 | -113.2 | -0.4 | 1.8 |
| 08/28 18:00 | 66 | 78 | 37 | 27 | 0 | 2 | 8 | 175 | 0.00 | 0.00 | -106.8 | -0.4 | 2.2 |
| 08/28 17:00 | 67 | 80 | 35 | 25 | 0 | 3 | 10 | 233 | 0.00 | 0.00 | -97.9 | -0.7 | 2.0 |
| 08/28 16:00 | 67 | 80 | 36 | 24 | 0 | 3 | 11 | 195 | 0.00 | 0.00 | -77.5 | -0.5 | 2.4 |
| 08/28 15:00 | 66 | 82 | 37 | 24 | 0 | 3 | 10 | 121 | 0.00 | 0.00 | -76.0 | -1.0 | 1.8 |
| 08/28 14:00 | 67 | 80 | 37 | 27 | 0 | 3 | 9 | 127 | 0.00 | 0.00 | -80.8 | -1.2 | 1.9 |
| 08/28 13:00 | 63 | 78 | 45 | 30 | 0 | 2 | 8 | 163 | 0.00 | 0.00 | -93.1 | -0.6 | 1.8 |
| 08/28 12:00 | 62 | 75 | 47 | 34 | 0 | 3 | 8 | 130 | 0.00 | 0.00 | -102.3 | -0.2 | 1.7 |
| 08/28 11:00 | 58 | 72 | 54 | 37 | 0 | 3 | 8 | 53 | 0.00 | 0.00 | -117.1 | -1.4 | 1.3 |
| 08/28 10:00 | 54 | 67 | 60 | 45 | 0 | 2 | 7 | 46 | 0.00 | 0.00 | -125.4 | -0.7 | 1.9 |
| 08/28 09:00 | 52 | 63 | 65 | 56 | 0 | 3 | 6 | 64 | 0.00 | 0.00 | -130.4 | -0.6 | 2.9 |
| 08/28 08:00 | 52 | 59 | 64 | 66 | 0 | 1 | 5 | 173 | 0.00 | 0.00 | -132.5 | -1.2 | 2.3 |
| 08/28 07:00 | 50 | 54 | 65 | 72 | 0 | 2 | 4 | 68 | 0.00 | 0.00 | -133.2 | -0.4 | 2.2 |
| 08/28 06:00 | 51 | 54 | 58 | 72 | 0 | 2 | 5 | 318 | 0.00 | 0.00 | -133.0 | -0.2 | 2.7 |
| 08/28 05:00 | 51 | 56 | 60 | 69 | 0 | 2 | 5 | 260 | 0.00 | 0.00 | -132.8 | -0.2 | 2.8 |
| 08/28 04:00 | 52 | 57 | 58 | 67 | 0 | 3 | 6 | 295 | 0.00 | 0.00 | -132.1 | -0.3 | 2.8 |
| 08/28 03:00 | 52 | 58 | 59 | 66 | 0 | 4 | 7 | 322 | 0.00 | 0.00 | -131.4 | -0.3 | 2.6 |
| 08/28 02:00 | 52 | 59 | 59 | 65 | 2 | 8 | 15 | 292 | 0.00 | 0.00 | -132.3 | -0.3 | 2.3 |
| 08/28 01:00 | 53 | 60 | 58 | 60 | 1 | 12 | 24 | 280 | 0.00 | 0.00 | -131.2 | -0.3 | 3.4 |
| 08/28 00:00 | 53 | 60 | 58 | 58 | 4 | 14 | 27 | 277 | 0.00 | 0.00 | -131.5 | -0.3 | 3.4 |
| 08/27 23:00 | 54 | 64 | 59 | 51 | 0 | 8 | 24 | 296 | 0.00 | 0.00 | -131.0 | -0.3 | 2.4 |
| 08/27 22:00 | 54 | 65 | 56 | 48 | 0 | 8 | 20 | 302 | 0.00 | 0.00 | -127.4 | -0.3 | 3.6 |
| 08/27 21:00 | 55 | 68 | 53 | 42 | 1 | 9 | 21 | 302 | 0.00 | 0.00 | -125.2 | -0.3 | 3.4 |
| 08/27 20:00 | 56 | 70 | 50 | 38 | 0 | 9 | 24 | 288 | 0.00 | 0.00 | -121.6 | -0.3 | 2.2 |
| 08/27 19:00 | 58 | 73 | 45 | 34 | 0 | 6 | 19 | 309 | 0.00 | 0.00 | -115.6 | -0.3 | 2.9 |
| 08/27 18:00 | 63 | 76 | 41 | 30 | 0 | 5 | 18 | 283 | 0.00 | 0.00 | -107.1 | -0.3 | 1.8 |
| 08/27 17:00 | 64 | 79 | 39 | 26 | 0 | 8 | 21 | 264 | 0.00 | 0.00 | -94.4 | -0.7 | 1.6 |
| 08/27 16:00 | 62 | 79 | 41 | 26 | 11 | 21 | 32 | 267 | 0.00 | 0.00 | -83.6 | -0.8 | 2.3 |
| 08/27 15:00 | 65 | 82 | 38 | 23 | 3 | 14 | 27 | 268 | 0.00 | 0.00 | -89.7 | -0.8 | 1.6 |
| 08/27 14:00 | 65 | 81 | 35 | 24 | 2 | 12 | 23 | 261 | 0.00 | 0.00 | -90.4 | -0.5 | 1.8 |
| 08/27 13:00 | 63 | 80 | 30 | 23 | 1 | 9 | 20 | 261 | 0.00 | 0.00 | -98.7 | -0.3 | 3.1 |
| 08/27 12:00 | 63 | 78 | 32 | 29 | 0 | 8 | 20 | 270 | 0.00 | 0.00 | -108.7 | -0.8 | 2.7 |
| 08/27 11:00 | 60 | 74 | 50 | 40 | 0 | 2 | 11 | 210 | 0.00 | 0.00 | -113.4 | -0.6 | 1.9 |
| 08/27 10:00 | 61 | 72 | 54 | 48 | 0 | 1 | 6 | 359 | 0.00 | 0.00 | -122.6 | -0.5 | 1.5 |
| 08/27 09:00 | 60 | 66 | 55 | 57 | 0 | 3 | 7 | 99 | 0.00 | 0.00 | -130.3 | -0.9 | 1.3 |
| 08/27 08:00 | 57 | 61 | 58 | 65 | 0 | 2 | 7 | 4 | 0.00 | 0.00 | -131.8 | -0.4 | 1.7 |
| 08/27 07:00 | 56 | 59 | 60 | 67 | 0 | 3 | 7 | 358 | 0.00 | 0.00 | -132.2 | -0.5 | 1.8 |
| 08/27 06:00 | 56 | 60 | 58 | 65 | 0 | 5 | 11 | 342 | 0.00 | 0.00 | -132.1 | -0.3 | 2.0 |
| 08/27 05:00 | 56 | 59 | 60 | 64 | 0 | 3 | 9 | 3 | 0.00 | 0.00 | -132.1 | -0.2 | 2.0 |
| 08/27 04:00 | 58 | 59 | 56 | 63 | 0 | 5 | 15 | 329 | 0.00 | 0.00 | -131.1 | -0.1 | 1.8 |
| 08/27 03:00 | 60 | 61 | 50 | 58 | 5 | 12 | 17 | 268 | 0.00 | 0.00 | -130.8 | -0.1 | 2.1 |
| 08/27 02:00 | 59 | 63 | 51 | 55 | 3 | 9 | 14 | 269 | 0.00 | 0.00 | -129.7 | -0.3 | 1.8 |
| 08/27 01:00 | 60 | 64 | 48 | 51 | 0 | 11 | 19 | 262 | 0.00 | 0.00 | -129.8 | -0.2 | 2.0 |
| 08/27 00:00 | 62 | 66 | 44 | 49 | 0 | 7 | 17 | 256 | 0.00 | 0.00 | -127.2 | -0.2 | 1.7 |
| 08/26 23:00 | 62 | 67 | 45 | 45 | 3 | 10 | 18 | 285 | 0.00 | 0.00 | -125.6 | -0.4 | 1.6 |
| 08/26 22:00 | 63 | 70 | 39 | 40 | 4 | 9 | 14 | 290 | 0.00 | 0.00 | -119.6 | -0.2 | 2.0 |
| 08/26 21:00 | 64 | 75 | 38 | 31 | 1 | 5 | 11 | 302 | 0.00 | 0.00 | -112.8 | -0.3 | 2.8 |
| 08/26 20:00 | 66 | 80 | 34 | 27 | 1 | 8 | 19 | 260 | 0.00 | 0.00 | -104.6 | -0.4 | 3.0 |
| 08/26 19:00 | 68 | 84 | 31 | 20 | 3 | 9 | 18 | 268 | 0.00 | 0.00 | -101.4 | -0.4 | 3.0 |
| 08/26 18:00 | 71 | 87 | 32 | 20 | 2 | 8 | 16 | 273 | 0.00 | 0.00 | -97.1 | -0.4 | 2.4 |
| 08/26 17:00 | 75 | 90 | 33 | 18 | 1 | 7 | 15 | 272 | 0.00 | 0.00 | -92.8 | -0.6 | 1.1 |
| 08/26 16:00 | 77 | 92 | 31 | 21 | 0 | 3 | 13 | 248 | 0.00 | 0.00 | -87.3 | -0.6 | 0.7 |
| 08/26 15:00 | 80 | 94 | 22 | 16 | 0 | 2 | 7 | 214 | 0.00 | 0.00 | -88.4 | -0.7 | 1.3 |
| 08/26 14:00 | 80 | 91 | 21 | 18 | 0 | 2 | 7 | 206 | 0.00 | 0.00 | -90.3 | -0.9 | 2.0 |
| 08/26 13:00 | 77 | 89 | 26 | 22 | 0 | 4 | 10 | 140 | 0.00 | 0.00 | -98.3 | -1.0 | 1.2 |
| 08/26 12:00 | 76 | 87 | 26 | 21 | 0 | 3 | 10 | 126 | 0.00 | 0.00 | -104.8 | -0.8 | 1.1 |
| 08/26 11:00 | 76 | 81 | 20 | 30 | 0 | 2 | 6 | 122 | 0.00 | 0.00 | -105.1 | -1.0 | 3.1 |
| 08/26 10:00 | 77 | 75 | 23 | 40 | 0 | 2 | 5 | 18 | 0.00 | 0.00 | -116.2 | -0.8 | 2.1 |
| 08/26 09:00 | 73 | 70 | 22 | 46 | 0 | 2 | 6 | 355 | 0.00 | 0.00 | -125.5 | -0.9 | 3.6 |
| 08/26 08:00 | 71 | 62 | 27 | 64 | 0 | 1 | 3 | 241 | 0.00 | 0.00 | -128.7 | -0.9 | 3.4 |
| 08/26 07:00 | 68 | 58 | 26 | 70 | 0 | 1 | 4 | 187 | 0.00 | 0.00 | -131.5 | -0.5 | 5.0 |
| 08/26 06:00 | 68 | 59 | 32 | 70 | 0 | 2 | 4 | 347 | 0.00 | 0.00 | -132.5 | -0.3 | 3.0 |
| 08/26 05:00 | 68 | 60 | 34 | 68 | 1 | 3 | 5 | 348 | 0.00 | 0.00 | -131.4 | -0.3 | 2.5 |
| 08/26 04:00 | 68 | 61 | 34 | 65 | 0 | 2 | 5 | 324 | 0.00 | 0.00 | -130.6 | -0.3 | 2.8 |
| 08/26 03:00 | 67 | 62 | 38 | 63 | 0 | 0 | 3 | 203 | 0.00 | 0.00 | -130.1 | -0.3 | 2.2 |
| 08/26 02:00 | 67 | 64 | 38 | 60 | 0 | 1 | 5 | 251 | 0.00 | 0.00 | -128.5 | -0.4 | 1.6 |
| 08/26 01:00 | 68 | 65 | 38 | 56 | 0 | 2 | 5 | 235 | 0.00 | 0.00 | -126.9 | -0.3 | 1.7 |
| 08/26 00:00 | 69 | 67 | 35 | 50 | 0 | 2 | 5 | 326 | 0.00 | 0.00 | -124.9 | -0.3 | 1.6 |
| 08/25 23:00 | 69 | 69 | 40 | 44 | 0 | 2 | 7 | 256 | 0.00 | 0.00 | -122.7 | -0.2 | 2.2 |
| 08/25 22:00 | 71 | 71 | 37 | 39 | 0 | 7 | 16 | 299 | 0.00 | 0.00 | -118.5 | -0.2 | 1.5 |
| 08/25 21:00 | 73 | 73 | 26 | 35 | 0 | 3 | 5 | 306 | 0.00 | 0.00 | -112.4 | -0.1 | 2.9 |
| 08/25 20:00 | 75 | 77 | 21 | 33 | 0 | 3 | 11 | 176 | 0.00 | 0.00 | -103.1 | -0.3 | 3.1 |
| 08/25 19:00 | 77 | 82 | 19 | 27 | 0 | 3 | 9 | 135 | 0.00 | 0.00 | -96.7 | -0.4 | 2.2 |
| 08/25 18:00 | 79 | 89 | 18 | 23 | 0 | 2 | 7 | 130 | 0.00 | 0.00 | -100.3 | -0.7 | 3.2 |
| 08/25 17:00 | 78 | 92 | 21 | 16 | 0 | 2 | 8 | 128 | 0.00 | 0.00 | -94.4 | -0.8 | 2.7 |
| 08/25 16:00 | 80 | 94 | 23 | 15 | 0 | 3 | 8 | 235 | 0.00 | 0.00 | -95.3 | -1.0 | 2.2 |
| 08/25 15:00 | 77 | 91 | 26 | 18 | 0 | 3 | 9 | 143 | 0.00 | 0.00 | -92.5 | -0.7 | 1.8 |
| 08/25 14:00 | 77 | 90 | 27 | 21 | 0 | 2 | 9 | 146 | 0.00 | 0.00 | -91.0 | -0.7 | 1.9 |
| 08/25 13:00 | 76 | 88 | 29 | 22 | 0 | 2 | 7 | 187 | 0.00 | 0.00 | -98.3 | -0.8 | 1.4 |
| 08/25 12:00 | 75 | 83 | 30 | 26 | 0 | 1 | 5 | 208 | 0.00 | 0.00 | -101.9 | -0.9 | 1.0 |
| 08/25 11:00 | 73 | 77 | 31 | 37 | 0 | 1 | 6 | 193 | 0.00 | 0.00 | -106.3 | -1.2 | 1.7 |
| 08/25 10:00 | 72 | 70 | 32 | 44 | 0 | 2 | 5 | 189 | 0.00 | 0.00 | -118.7 | -1.3 | 1.9 |
| 08/25 09:00 | 71 | 67 | 31 | 47 | 0 | 2 | 6 | 183 | 0.00 | 0.00 | -126.5 | -1.1 | 2.4 |
| 08/25 08:00 | 71 | 60 | 30 | 67 | 0 | 1 | 2 | 202 | 0.00 | 0.00 | -132.3 | -1.3 | 4.1 |
| 08/25 07:00 | 67 | 56 | 34 | 75 | 0 | 0 | 2 | 196 | 0.00 | 0.00 | -132.5 | -0.5 | 3.6 |
| 08/25 06:00 | 65 | 55 | 36 | 73 | 0 | 0 | 1 | 247 | 0.00 | 0.00 | -131.1 | -0.2 | 3.9 |
| 08/25 05:00 | 66 | 56 | 35 | 71 | 0 | 1 | 2 | 219 | 0.00 | 0.00 | -131.4 | -0.2 | 3.0 |
| 08/25 04:00 | 67 | 58 | 35 | 66 | 0 | 1 | 3 | 197 | 0.00 | 0.00 | -132.2 | -0.3 | 2.8 |
| 08/25 03:00 | 67 | 59 | 35 | 66 | 0 | 0 | 2 | 200 | 0.00 | 0.00 | -130.8 | -0.2 | 3.5 |
| 08/25 02:00 | 66 | 60 | 36 | 63 | 0 | 0 | 1 | 212 | 0.00 | 0.00 | -130.8 | -0.3 | 3.4 |
| 08/25 01:00 | 67 | 62 | 35 | 59 | 0 | 0 | 2 | 191 | 0.00 | 0.00 | -128.9 | -0.3 | 1.9 |
| 08/25 00:00 | 68 | 63 | 34 | 58 | 0 | 1 | 3 | 204 | 0.00 | 0.00 | -128.2 | -0.2 | 2.6 |
| 08/24 23:00 | 68 | 65 | 34 | 55 | 0 | 1 | 3 | 179 | 0.00 | 0.00 | -124.7 | -0.3 | 1.7 |
| 08/24 22:00 | 69 | 68 | 33 | 49 | 0 | 2 | 4 | 149 | 0.00 | 0.00 | -121.9 | -0.2 | 2.6 |
| 08/24 21:00 | 69 | 71 | 33 | 45 | 0 | 2 | 5 | 169 | 0.00 | 0.00 | -114.8 | -0.3 | 2.8 |
| 08/24 20:00 | 69 | 75 | 32 | 40 | 0 | 3 | 6 | 223 | 0.00 | 0.00 | -105.5 | -0.3 | 2.8 |
| 08/24 19:00 | 72 | 80 | 32 | 32 | 0 | 3 | 8 | 237 | 0.00 | 0.00 | -101.6 | -0.4 | 2.4 |

